Showing default

KUIPER-00019, 63734

Orbit data source: Space-Track

KUIPER-00019, 63734 is a payload satellite owned by Kuiper Systems (US) in LEO that was launched on Mon, 28 Apr 2025 UTC via an ATLAS V 551 launch vehicle from the Air Force Eastern Test Range (AFETR). Payload-class satellites include a variety of spacecraft equipped with specific instruments for various scientific and technological missions. These include communications satellites like Starlink; space stations such as the ISS; scientific satellites like the Hubble; Earth observation satellites from companies like Planet Labs, Umbra, and HawkEye 360; GPS; miniature CubeSats for education and research; and military/defense satellites.

Loading next visibility...
Identifier
63734, 2025-088L
Orbit
LEO
Country
Flag of USUS
Related business
Manufacturer
Kuiper Systems
Mission
Operational Commercial Communications
Bus & Motor
KUIPER, Unknown motor
Mass
~490 kg wet, ~490 kg dry
Launch date (UTC)
2025-04-28 (8 months ago)
Launch vehicle
ATLAS V 551
Launch site
Air Force Eastern Test Range (AFETR)
Object type
Payload
Rocket body
Debris
Shape & HBR
Box + 2 Pan, 3.4 m
Radar Cross Section
2.326 m², Large (>1 m²)

Expand to show TLE details & history
Last TLE update: 2 days ago

TLE from 2 days ago
0 KUIPER-00019
1 63734U 25088L   25348.09555449  .00003580  00000-0  49761-3 0  9995
2 63734  51.8989 117.5919 0010152 170.8772 189.2377 14.79991721 34834
Epoch: 2025-12-14T02:17Z
TLE epoch observation values (Epoch: 2025-12-14T02:17:35.907Z)
Latitude
-0.00001°
Longitude
0.17889°
Altitude
637.119 km
Speed
7.537 km/s
True Right ascension
07h 50m 22s
True Declination
0° 00' 00"
Sunlit
Object was in full shadow at epoch
Visualization orbit readout
Latitude
Unknown
Longitude
Unknown
Altitude
Unknown
Speed
Unknown
Apparent Right ascension
Unknown
Apparent Declination
Unknown
Sunlit
N/A
Visualization observer readout
Local Sidereal Time
13:25:40
Azimuth
Unknown
Elevation
Unknown
Doppler factor
Unknown
Orbital elements
Apogee altitude
636.916 km
Perigee altitude
622.687 km
Semi-major axis
7,007.939 km
Eccentricity
0.00102
Inclination
51.8989°
RAAN
117.5919°
Arg. of periapsis
170.8772°
True anomaly
189.21905°
Mean anomaly
189.2377°
Eccentric anomaly
189.22837°
Mean motion
3.69963 °/min
Orbital period
97.31 mins
BSTAR
0.00049761
Loading maneuver chart data...
Computing Atmospheric mass density...
Loading historical data...
Loading historical data...
Loading historical data...
Loading historical data...
Loading historical data...
Loading historical data...
Loading historical data...

Documentation

Showing up to 5 results
|